This is the latest recevied weather packets stored in our database for station/object DPX206-15. If no packets are shown the sender has not sent any weather packets the latest 1 day(s).
| Time | Temp. | Humidity | Pressure | Rain* | Wind** | Luminosity | Snow |
|---|---|---|---|---|---|---|---|
| 1778096681 | 10.56° C | 95% | 1007.4 hPa | 0 mm | - | 6 W/m² | - |
| 1778092180 | 10.56° C | 95% | 1007.4 hPa | 0 mm | - | 6 W/m² | - |
| 1778089929 | 10.56° C | 95% | 1007.4 hPa | 0 mm | - | 6 W/m² | - |
| 1778088429 | 10.56° C | 95% | 1007.4 hPa | 0 mm | - | 6 W/m² | - |
| 1778085431 | 10.56° C | 94% | 1007 hPa | 0 mm | - | 12 W/m² | - |
| 1778079427 | 11.11° C | 94% | 1007.1 hPa | 0.25 mm | - | 44 W/m² | - |
| 1778077176 | 11.11° C | 94% | 1007.3 hPa | 0.51 mm | - | 48 W/m² | - |
| 1778076426 | 10.56° C | 94% | 1007.6 hPa | 0.51 mm | - | 75 W/m² | - |
| 1778074926 | 11.11° C | 94% | 1007.4 hPa | 0.51 mm | - | 30 W/m² | - |
| 1778066673 | 10.56° C | 94% | 1007.2 hPa | 0.76 mm | - | 86 W/m² | - |
| 1778064422 | 10.56° C | 94% | 1007 hPa | 0 mm | - | 71 W/m² | - |
| 1778063672 | 10.56° C | 94% | 1007 hPa | 0 mm | - | 44 W/m² | - |
| 1778061421 | 10.56° C | 94% | 1007 hPa | 0 mm | - | 116 W/m² | - |
| 1778060671 | 10.56° C | 94% | 1006.9 hPa | 0.25 mm | - | 100 W/m² | - |
| 1778059921 | 10.56° C | 94% | 1006.8 hPa | 0.51 mm | - | 151 W/m² | - |
| 1778057670 | 10.56° C | 95% | 1006.5 hPa | 0.76 mm | - | 102 W/m² | - |
| 1778056920 | 10.56° C | 95% | 1007 hPa | 1.02 mm | - | 123 W/m² | - |
| 1778056170 | 10° C | 95% | 1006.6 hPa | 0.76 mm | - | 71 W/m² | - |
| 1778053919 | 10° C | 95% | 1006.3 hPa | 0.51 mm | - | 47 W/m² | - |
| 1778053169 | 10° C | 95% | 1006 hPa | 0.51 mm | - | 45 W/m² | - |
| 1778052419 | 10° C | 95% | 1006.5 hPa | 0.25 mm | - | 39 W/m² | - |
| 1778050168 | 10° C | 95% | 1006.1 hPa | 0 mm | - | 44 W/m² | - |
| 1778049418 | 9.44° C | 95% | 1006.3 hPa | 0.25 mm | - | 39 W/m² | - |
| 1778048667 | 9.44° C | 95% | 1006.3 hPa | 0.25 mm | - | 37 W/m² | - |
| 1778047168 | 9.44° C | 95% | 1006 hPa | 0.51 mm | - | 28 W/m² | - |
* Rain latest hour (hover to see other rain measurements)
** Current wind speed in m/s (hover to see current wind gust speed)